Theta_e
319 319 318 317 317 318 317 316 316 315 315 313 312 310 307 300 299 299 299 299 298 297 297 297 296 297 299 298 297 296 296 296 297 297 297 300 303 306 312 315 319 321 321 322 322 321 321 321 320 320 320 320 320 320 321 321 321 321 320 320 320 319 319 319 318 319 319 319 319 319 319 320 321 321 322 323 324 325 326 327 327 328 328 329 329
319 318 318 316 316 317 316 316 316 315 314 313 310 307 302 297 298 299 298 298 298 297 296 296 296 296 297 297 296 297 296 296 296 298 297 299 303 304 310 313 316 320 321 321 321 321 321 321 320 319 319 320 320 320 320 320 321 320 320 319 319 319 318 317 317 317 317 318 318 318 318 319 319 320 321 321 322 323 324 325 325 325 326 326 326
319 318 317 315 315 316 315 315 315 314 313 311 307 303 299 298 299 297 297 297 296 296 296 296 296 296 297 296 295 295 295 295 296 296 297 297 302 303 304 310 314 317 320 320 321 321 321 320 319 318 319 319 320 319 318 319 319 319 318 318 318 317 317 316 316 316 316 317 316 317 318 318 319 319 320 320 321 321 321 321 322 323 323 323 323
319 318 316 315 315 315 315 314 313 311 311 306 304 301 299 298 298 297 297 297 296 295 297 295 295 296 296 295 295 295 294 295 295 296 296 297 300 304 302 305 309 312 315 319 320 320 321 320 319 318 319 319 319 318 317 317 318 317 318 317 317 317 316 316 315 315 316 315 316 316 316 317 317 318 318 319 319 319 320 320 320 320 320 321 321
318 317 315 315 313 313 313 312 311 308 307 304 301 299 298 298 299 299 297 297 295 295 297 295 295 295 295 294 295 294 294 294 295 295 297 298 298 300 304 302 302 307 310 313 316 318 319 320 320 318 319 319 318 317 317 316 316 317 316 317 316 316 316 315 314 315 315 315 315 315 315 315 315 316 317 317 317 318 318 318 319 319 319 319 319
317 315 314 313 313 313 312 310 309 306 305 302 300 297 297 298 297 296 298 296 295 295 293 294 293 293 294 293 294 294 293 294 294 296 296 297 297 297 302 302 301 301 302 307 310 314 317 318 319 319 320 318 317 316 316 316 316 316 316 315 315 316 315 314 314 314 314 314 314 314 314 314 314 315 315 316 317 317 317 317 317 317 318 318 318
316 315 313 312 311 311 310 309 308 305 303 300 299 297 297 297 296 295 295 294 294 294 293 294 293 293 294 293 294 294 293 294 295 295 296 295 297 297 298 302 302 302 301 298 302 306 312 315 316 317 319 320 318 316 316 315 315 315 315 314 314 314 314 314 313 313 313 313 313 313 313 313 314 314 314 315 315 315 315 315 316 316 317 317 317
315 314 312 311 311 310 310 308 307 304 301 299 298 296 296 296 295 294 293 293 294 292 292 292 292 293 292 292 293 293 292 293 294 295 294 294 295 296 296 295 297 300 302 298 297 301 307 310 313 314 315 317 318 316 315 315 315 314 315 314 314 313 313 313 313 312 312 312 312 312 312 313 313 313 313 313 313 314 314 314 314 315 315 315 316
315 313 312 310 309 308 308 308 306 302 300 299 297 296 295 296 293 294 293 292 292 291 291 293 293 293 292 292 292 292 293 294 294 294 296 293 294 295 295 292 292 299 293 296 296 296 302 306 307 308 310 313 315 317 315 314 315 315 315 314 313 313 312 312 311 311 311 310 311 311 311 311 312 312 312 311 312 312 313 313 313 313 313 314 314
314 312 310 309 307 307 307 306 304 302 300 298 297 295 295 294 292 293 293 293 292 291 291 292 295 293 292 292 292 291 292 293 293 296 293 293 294 294 293 292 291 293 292 293 294 295 296 300 304 303 304 308 312 314 316 317 319 316 315 314 313 313 312 311 311 311 310 310 310 310 310 310 310 310 310 310 310 311 311 312 312 312 313 313 314
313 310 309 308 306 305 305 305 303 301 299 298 296 294 294 294 292 292 293 293 292 291 292 293 294 293 292 292 292 292 293 292 292 292 292 293 294 295 295 292 292 292 292 291 291 293 293 293 293 292 294 302 307 310 313 314 314 318 316 314 313 313 312 312 311 310 309 309 309 309 309 309 309 309 309 309 309 309 310 311 311 311 312 312 313
311 309 308 306 304 303 303 303 302 300 299 297 296 294 294 293 292 292 292 292 293 292 292 292 291 290 290 291 291 292 292 292 292 291 292 293 293 292 292 291 291 291 292 291 291 291 291 291 293 292 293 297 301 304 307 309 309 314 318 314 313 313 312 311 310 309 308 309 308 308 308 308 308 308 308 308 309 309 309 310 310 310 311 311 311
309 308 308 305 303 301 300 300 300 299 298 297 296 295 294 294 293 293 292 291 290 292 292 292 290 287 288 289 290 291 292 291 291 291 292 292 292 291 291 290 290 290 290 290 290 291 290 290 290 291 290 290 294 300 302 305 306 310 315 315 314 313 313 312 311 309 307 307 307 308 307 308 308 307 307 308 308 308 308 309 309 309 310 310 310
308 307 307 306 303 300 299 299 298 298 298 297 295 295 294 294 293 291 292 291 290 291 293 291 288 286 285 287 288 289 289 289 289 289 291 291 291 292 291 290 290 290 291 290 289 290 290 289 289 290 289 289 290 292 296 295 297 306 311 315 315 314 312 311 310 309 307 307 307 307 307 307 307 307 307 307 307 307 307 308 308 308 309 309 309
308 307 307 306 304 301 299 298 298 297 296 296 295 294 294 293 293 293 291 290 290 293 292 292 287 287 287 286 284 285 287 287 288 289 291 291 290 290 291 290 290 290 290 289 289 289 290 289 289 289 289 289 290 292 292 293 294 300 304 307 312 314 312 311 310 309 308 307 307 307 306 306 306 307 306 306 307 307 307 307 308 308 308 308 309
304 304 305 305 304 302 299 298 298 297 297 295 294 294 293 293 293 292 292 290 290 292 292 290 288 289 284 285 283 284 282 285 285 287 289 290 290 290 290 290 290 289 289 289 289 288 288 289 289 290 289 289 289 290 292 291 294 295 296 299 304 311 312 311 309 308 308 307 306 306 306 306 306 306 306 306 306 306 307 307 307 308 308 308 308
303 303 303 303 303 302 299 297 297 296 296 295 294 294 294 294 293 292 291 291 289 289 291 291 289 291 288 285 284 284 283 284 285 285 287 287 289 289 290 290 290 290 288 288 288 289 289 288 289 289 289 289 289 289 292 291 292 292 292 293 298 304 309 310 308 308 308 307 306 306 305 305 305 305 305 305 306 306 306 307 307 307 307 307 307
302 302 302 301 301 301 300 297 296 296 295 295 294 293 293 293 293 293 291 290 290 289 289 291 290 290 290 288 287 284 284 285 285 284 286 287 288 289 289 289 289 289 289 288 288 288 289 289 289 289 289 289 289 289 291 292 293 291 291 296 301 302 304 307 308 307 307 307 306 306 306 305 304 304 304 304 305 305 306 306 306 306 306 306 306
301 300 300 300 300 300 300 298 296 295 295 294 293 293 294 294 293 292 292 291 288 288 289 290 289 289 291 292 291 289 289 286 283 282 280 283 286 286 287 288 288 288 289 288 288 288 288 289 288 288 289 289 289 289 292 293 295 294 297 300 302 302 302 302 304 305 306 306 305 305 305 305 305 304 303 303 304 304 305 305 305 305 305 305 306
300 299 299 299 299 299 299 298 296 295 294 294 294 293 294 294 293 293 292 291 290 289 288 289 289 289 290 289 290 290 290 290 289 287 283 281 282 285 286 287 287 288 288 288 288 288 287 288 288 288 288 288 288 288 291 292 292 294 295 300 301 301 301 300 300 301 302 303 304 304 305 304 304 303 302 302 303 303 304 304 304 304 304 305 305
299 299 298 298 298 298 297 297 297 295 294 294 293 293 293 293 293 292 291 291 291 290 289 288 289 288 287 287 289 290 289 287 288 289 284 281 281 282 283 285 286 286 287 288 288 288 288 288 288 288 288 288 288 288 290 291 291 292 296 300 301 301 301 300 299 299 298 299 300 301 303 304 303 303 302 302 302 303 304 304 304 304 304 304 304
297 297 297 297 297 296 296 296 296 296 294 293 292 293 292 292 293 293 292 291 291 290 290 289 290 289 288 288 288 287 287 287 286 286 286 285 283 281 283 284 283 285 287 287 288 288 288 287 287 288 287 287 288 288 289 291 291 291 294 299 299 300 300 298 297 298 297 297 297 299 300 301 302 302 302 303 303 303 304 304 303 303 304 304 304
296 295 296 296 296 295 295 295 295 295 294 293 292 292 292 292 293 292 292 291 291 290 290 290 289 289 288 287 288 289 289 288 287 286 287 285 284 283 283 285 285 283 285 288 287 288 288 287 287 287 287 287 287 287 288 290 293 293 295 298 298 298 298 297 297 297 297 297 297 297 297 298 298 299 300 302 303 303 303 303 303 303 303 304 303
295 294 294 295 295 295 294 294 294 294 294 294 293 293 292 292 291 292 292 291 291 290 290 290 289 288 289 288 288 289 290 289 289 289 288 286 288 285 283 284 284 285 285 286 286 287 287 287 287 287 287 287 287 288 287 290 292 294 293 296 297 297 297 298 297 296 296 297 297 297 297 296 297 296 298 300 301 302 303 303 303 303 303 303 304
293 293 293 293 294 294 293 294 294 294 294 293 293 293 292 291 291 291 291 291 291 290 290 289 289 289 288 289 289 288 289 289 288 288 288 288 286 282 285 284 283 283 284 284 284 286 287 287 286 287 287 286 288 288 287 289 289 293 293 293 296 295 295 296 296 295 296 296 296 296 296 296 296 296 297 298 299 301 302 302 302 302 302 303 303
294 293 294 293 294 294 294 293 293 293 293 293 293 292 292 291 291 290 290 291 290 290 290 289 288 289 289 287 287 288 288 289 289 288 287 286 283 284 284 285 283 283 283 283 282 284 284 286 286 286 286 286 287 287 287 287 288 293 292 290 293 294 294 295 295 294 294 295 295 295 294 294 295 295 295 297 299 299 300 301 302 302 302 302 302
293 294 295 293 293 293 293 293 293 292 292 292 294 292 291 292 291 290 290 290 289 289 289 288 289 288 287 288 287 288 288 288 289 289 288 288 287 285 285 285 283 282 282 281 281 284 284 284 286 285 286 286 287 287 287 287 288 292 291 288 288 293 294 294 293 293 293 293 294 294 293 293 293 294 294 295 297 298 299 299 300 301 302 302 301
294 294 294 294 293 293 292 292 292 291 291 292 291 291 290 290 290 289 289 290 289 287 288 288 288 288 287 287 287 287 287 287 288 289 289 289 288 287 286 286 285 282 280 280 280 282 284 283 283 285 286 286 287 286 288 288 288 292 290 285 285 288 292 293 294 294 293 293 294 293 293 292 293 293 293 294 294 295 296 297 298 298 298 297 296
293 294 294 293 294 292 292 291 291 291 291 290 290 289 288 289 289 288 288 287 287 287 287 287 287 287 287 287 287 288 286 286 287 287 287 288 288 287 287 287 287 285 280 279 280 281 282 284 282 284 286 286 286 286 287 287 288 290 287 285 284 284 290 292 293 294 293 294 293 293 292 292 292 293 293 293 294 294 294 295 295 295 295 295 296
292 292 291 291 291 291 291 289 289 288 288 288 287 288 287 288 288 288 288 287 287 287 287 287 287 286 286 287 287 287 286 286 285 285 286 287 285 287 287 287 288 287 283 282 282 281 280 283 284 282 284 285 286 286 286 287 290 289 286 285 284 284 289 291 292 293 293 293 293 293 293 292 292 292 292 293 293 294 294 295 295 295 295 296 296
289 289 289 288 289 289 288 288 288 288 287 288 288 288 287 288 287 288 287 286 287 286 287 287 287 286 286 286 286 286 286 285 285 285 285 285 286 284 284 286 286 287 285 283 281 281 284 282 283 283 284 284 286 286 286 286 288 288 285 284 284 287 289 290 291 292 292 293 292 293 293 293 292 292 292 292 293 294 294 294 294 295 295 295 296
288 288 287 287 287 287 287 288 287 287 287 287 287 288 288 288 288 288 287 286 286 286 286 286 287 286 286 286 286 286 285 284 285 285 284 284 285 285 285 285 284 284 284 283 284 283 283 284 284 283 284 284 285 284 284 284 287 288 283 283 284 288 287 286 290 291 291 292 292 292 293 293 293 292 292 292 293 294 294 294 294 294 294 294 295
286 286 286 286 287 287 287 287 287 287 286 287 287 287 287 287 287 287 286 286 286 286 286 286 286 286 286 286 286 286 285 285 286 286 285 284 284 284 284 284 284 284 284 283 283 283 280 279 283 282 283 284 283 284 283 283 283 284 284 283 283 284 283 283 285 289 290 290 291 291 292 292 292 292 292 292 292 293 293 293 293 293 293 294 294
284 285 285 285 286 286 286 286 286 286 286 286 286 286 287 287 286 287 287 286 286 286 285 285 286 286 286 286 286 286 285 285 286 285 285 284 283 283 283 283 284 285 283 284 283 283 282 280 280 280 281 284 282 283 283 282 282 283 282 282 283 282 281 280 280 283 288 288 290 290 291 292 292 292 292 292 293 293 293 293 293 292 293 293 293
285 284 284 285 285 286 286 286 286 286 286 286 286 285 286 286 286 286 287 286 286 286 285 285 285 285 285 285 285 285 286 285 285 285 285 284 284 284 284 284 284 285 283 284 284 283 282 279 280 280 281 282 282 282 283 283 282 282 281 281 281 281 281 279 279 281 287 289 290 290 291 291 292 292 292 292 292 293 293 293 293 293 292 292 292
284 285 285 285 285 285 285 286 285 285 285 285 286 286 286 286 286 286 286 286 286 286 286 286 285 285 285 285 285 285 285 285 285 285 284 284 284 284 284 284 284 284 284 283 284 285 283 280 279 280 281 281 281 281 283 282 281 280 281 281 279 280 280 280 279 280 285 289 290 290 290 290 291 291 291 292 292 293 293 292 292 292 292 292 291
284 284 284 284 284 285 285 285 285 285 285 285 285 285 285 285 285 286 286 285 285 285 285 286 286 285 285 285 285 284 284 284 285 284 284 284 284 284 284 284 284 284 283 283 284 284 282 281 279 280 281 281 282 281 282 280 279 279 279 279 279 279 279 279 280 281 285 288 289 289 289 290 290 290 291 291 292 292 292 292 292 292 291 291 291
282 283 283 283 283 284 284 284 284 285 285 285 285 284 284 284 284 285 285 285 286 285 285 285 285 285 285 285 285 285 284 284 285 285 284 284 284 284 284 284 283 283 283 283 283 283 283 283 279 279 279 279 279 279 281 281 280 278 278 278 278 278 278 278 279 280 281 283 283 286 287 288 289 290 290 291 292 292 292 291 291 291 291 290 290
282 282 282 282 283 283 283 283 284 284 285 285 285 285 285 285 285 284 284 285 285 285 285 285 284 284 285 285 285 285 285 285 284 284 284 284 284 284 284 283 283 283 282 282 282 282 282 282 279 279 279 280 280 279 280 281 280 280 278 277 276 278 278 278 278 280 281 281 284 287 286 285 287 287 289 290 291 291 291 291 291 291 290 290 289
281 281 281 282 282 282 283 283 283 283 283 284 284 285 285 285 284 284 284 284 284 284 285 285 285 284 284 284 284 284 285 285 284 284 283 283 284 284 284 283 283 282 282 282 282 282 282 282 281 278 278 279 278 277 279 279 278 277 278 278 277 277 278 279 280 279 280 280 279 282 285 285 285 286 287 288 289 290 290 290 290 290 289 289 289
281 281 281 281 281 281 281 282 282 283 283 284 284 284 284 284 284 284 284 284 284 284 284 284 285 284 284 285 285 284 285 285 286 286 286 286 285 284 284 283 282 282 283 283 282 281 281 281 281 279 277 277 278 277 277 278 277 278 278 279 279 279 279 278 278 279 280 279 279 279 280 281 281 281 282 282 283 286 287 288 288 288 289 289 289
281 281 281 281 280 280 280 280 281 282 282 283 285 287 288 286 285 285 285 284 284 284 284 284 284 285 285 285 285 286 286 286 286 287 288 288 288 286 285 283 282 283 283 283 282 282 281 280 281 280 276 277 277 278 277 278 279 279 278 278 277 278 278 278 278 278 280 279 278 277 279 281 281 280 281 280 282 284 283 284 284 285 286 288 288
280 280 280 280 280 280 280 280 280 281 281 282 285 288 289 289 286 284 283 283 283 283 283 283 283 284 284 284 284 285 285 286 285 287 288 288 288 289 289 288 286 284 283 282 282 282 281 281 281 281 279 278 278 278 278 278 279 279 278 279 279 278 277 276 275 278 280 280 278 277 277 280 280 279 279 280 281 281 282 282 285 287 287 287 287
279 279 279 279 280 280 280 280 280 281 281 284 286 287 288 288 288 285 283 283 283 282 283 283 283 283 283 283 284 285 285 285 285 285 286 287 288 288 288 289 289 289 288 285 283 282 282 281 281 281 281 280 279 278 278 278 278 279 279 279 279 278 278 277 277 277 279 281 278 277 277 279 280 278 278 279 280 281 281 283 286 286 287 287 286
279 278 278 279 279 279 280 280 280 280 280 284 286 287 287 287 287 287 284 283 282 282 282 282 283 283 283 283 283 284 285 285 285 285 285 285 286 287 288 288 288 289 289 289 288 285 284 282 281 281 281 281 280 279 279 279 279 278 279 279 279 279 279 278 278 279 279 281 279 277 276 278 279 278 277 279 280 281 282 285 286 286 286 287 287
278 278 278 278 278 278 278 279 279 280 280 283 285 286 286 286 287 286 284 283 282 282 282 282 283 282 283 283 283 283 284 284 284 284 284 284 284 284 284 285 285 286 287 289 288 288 286 284 283 282 283 283 281 281 280 281 279 278 278 278 280 279 280 280 281 281 281 281 279 278 276 277 279 278 277 278 280 280 280 283 286 286 286 287 287
278 278 278 277 277 278 278 278 278 278 279 283 284 285 286 286 286 286 284 283 283 283 283 282 282 283 283 283 283 283 283 284 284 284 283 283 283 284 283 283 284 284 285 285 286 286 286 285 284 283 284 284 283 282 280 282 280 280 281 280 281 281 281 282 281 279 279 280 279 279 275 277 279 278 278 278 279 278 279 283 285 286 286 287 287
278 278 277 277 277 276 277 277 277 277 278 282 283 284 284 285 286 284 283 282 282 282 282 282 282 283 283 283 283 283 283 283 285 287 287 284 283 283 282 283 283 283 284 286 287 287 286 286 285 285 284 285 286 284 282 282 282 281 282 281 281 280 279 278 277 278 276 279 279 279 276 276 279 277 277 278 278 277 278 278 284 285 286 286 286
275 275 275 275 276 276 276 276 276 276 277 280 282 283 283 284 284 282 281 281 281 281 281 281 282 282 282 283 283 283 283 283 285 288 288 288 284 282 281 281 282 282 283 284 287 287 288 288 288 289 289 289 289 291 290 288 284 283 281 280 279 279 278 276 276 276 275 278 278 279 278 275 277 277 276 276 276 276 276 277 278 284 285 285 285
271 272 273 273 274 275 275 275 275 275 275 278 281 281 282 283 283 281 280 280 279 280 279 280 281 281 282 284 284 283 283 283 286 288 288 287 285 284 282 281 280 280 281 283 284 284 287 288 288 288 288 289 289 289 290 290 288 287 281 278 279 280 277 278 276 276 276 277 277 279 277 275 277 276 275 275 275 276 276 276 277 279 283 283 284
270 271 272 272 272 273 273 274 276 275 275 277 280 280 281 282 280 278 278 278 278 278 279 279 280 280 281 282 284 284 284 285 287 288 288 287 284 284 283 282 281 280 281 282 281 281 282 283 284 284 285 286 286 285 285 288 288 286 282 282 282 279 278 278 278 276 274 275 278 279 275 274 274 275 275 273 270 273 276 276 277 276 277 277 279
Wind_Speed
8 7 7 6 6 7 7 7 6 6 7 6 6 7 7 7 7 6 5 5 4 4 4 3 3 4 5 3 3 4 3 4 3 3 2 3 3 5 7 8 9 9 6 3 3 3 3 2 2 1 1 2 3 1 1 2 5 4 3 5 6 6 5 5 5 5 5 5 5 5 5 5 5 5 5 5 6 6 7 6 7 8 8 9 10
7 7 8 7 7 8 8 8 7 7 8 8 6 7 7 6 6 5 5 5 5 4 4 3 4 4 5 4 4 4 4 4 2 1 1 3 4 4 7 8 9 9 7 5 3 3 4 5 5 4 2 2 3 3 2 3 5 3 4 4 5 6 5 5 4 4 4 4 5 5 5 5 5 5 5 6 6 6 7 9 9 9 10 11 10
7 7 7 7 7 8 8 8 8 8 8 8 7 7 7 7 7 7 7 6 7 6 6 5 5 4 4 4 3 4 4 3 3 2 2 2 4 3 3 8 9 10 11 8 8 5 3 5 3 2 3 4 4 4 3 4 4 3 3 4 4 4 4 4 4 4 4 4 4 5 5 5 6 6 7 7 7 7 7 7 7 9 9 9 9
7 7 8 8 7 8 7 8 7 7 8 7 8 7 7 6 6 6 5 5 6 6 6 7 6 5 4 4 3 4 4 4 4 2 2 2 3 4 3 4 7 10 10 12 10 8 9 7 3 2 3 5 5 4 3 2 1 2 2 3 3 3 3 3 3 3 4 4 4 4 5 5 5 6 6 6 7 7 7 7 8 8 8 8 9
7 8 8 7 7 7 7 7 7 7 7 7 7 7 7 7 7 6 6 5 7 5 5 6 6 6 6 4 4 4 4 4 4 3 2 0 1 4 5 4 4 7 9 10 12 10 8 8 7 3 2 4 4 3 2 1 1 2 3 3 2 3 4 3 2 2 3 4 4 4 4 4 4 5 5 6 6 7 7 7 7 7 7 7 8
7 7 7 7 7 7 7 7 7 6 7 7 8 7 7 7 7 7 7 7 7 6 6 6 6 6 5 4 5 4 4 4 4 4 3 1 1 2 6 4 4 4 3 7 10 10 9 8 7 8 8 4 2 2 4 4 3 3 3 3 3 3 3 2 3 2 3 3 3 3 3 3 4 4 4 5 6 6 6 6 7 7 7 7 8
7 8 8 8 7 7 8 7 7 7 7 7 8 7 7 7 7 8 6 6 6 6 5 6 7 7 6 5 5 6 4 5 5 4 2 2 1 2 2 5 4 5 4 4 6 8 9 9 8 8 9 10 5 2 4 4 4 3 3 2 3 2 1 1 1 2 2 3 2 3 2 3 4 4 4 5 4 5 5 6 6 6 6 7 7
6 7 7 7 8 8 8 7 7 7 7 7 7 7 7 7 6 7 8 6 7 6 5 6 6 6 6 6 6 6 6 6 5 5 3 3 2 3 1 2 4 5 5 5 5 4 7 7 8 8 9 8 8 2 2 2 3 4 4 4 3 3 3 3 2 2 2 2 2 3 2 3 3 3 3 4 4 4 5 5 6 6 6 6 7
6 7 7 7 7 7 7 7 7 7 7 7 7 7 7 7 7 6 7 7 7 6 5 6 5 5 4 4 4 4 4 6 5 5 4 4 4 4 2 4 3 4 4 6 5 4 4 6 7 8 8 8 7 7 3 1 4 5 6 5 4 3 4 4 2 1 1 1 2 2 2 2 2 2 2 2 3 3 4 4 5 5 5 5 6
6 5 6 6 5 6 6 7 7 8 7 7 7 6 6 7 7 6 7 6 7 7 6 5 4 4 4 4 3 2 2 4 3 3 4 4 4 4 4 4 3 1 3 5 5 5 3 4 6 6 6 6 6 6 6 7 7 4 8 6 6 6 5 3 4 4 3 2 1 2 1 1 1 1 1 1 2 2 3 3 4 4 5 5 6
5 5 6 7 6 6 7 7 7 8 8 7 7 7 6 6 8 6 5 6 8 7 7 6 5 4 4 3 2 1 1 2 3 3 3 3 2 2 3 4 4 2 4 4 5 5 4 4 3 3 2 4 4 5 6 7 7 8 5 7 7 6 6 6 5 4 4 3 3 2 2 2 2 1 0 1 1 1 2 2 3 4 5 5 5
5 4 5 5 5 5 5 5 7 8 8 8 8 8 9 8 7 8 6 4 5 6 6 7 5 5 4 3 2 1 1 1 1 2 2 3 3 2 3 2 3 3 3 3 4 4 4 4 3 4 3 2 2 2 5 6 8 7 10 7 8 9 9 7 6 4 3 4 3 3 3 2 2 1 1 1 1 1 1 1 2 3 4 4 5
4 4 5 4 4 4 4 5 6 7 8 9 9 8 7 8 8 7 9 6 4 6 6 8 8 3 3 2 0 0 0 0 1 3 3 3 4 4 3 3 3 3 3 3 3 3 3 3 4 4 4 3 2 0 0 4 6 7 7 5 10 9 9 8 8 6 3 3 3 3 3 3 3 2 1 1 1 0 1 2 2 2 3 3 4
5 5 5 5 5 4 4 6 6 7 7 6 6 7 7 7 7 6 5 9 6 8 9 10 2 7 5 1 0 1 2 3 3 4 4 3 4 5 4 5 5 4 4 3 4 4 4 3 3 4 4 4 3 3 1 2 3 6 5 9 6 12 10 9 8 6 6 5 5 4 4 3 3 3 1 1 0 0 1 1 1 2 3 2 3
6 6 6 6 7 7 7 7 7 7 6 7 7 8 8 10 10 10 7 4 4 6 11 12 8 6 5 5 2 1 2 2 4 5 5 4 4 5 5 5 5 5 5 4 4 3 3 3 3 3 4 4 4 4 4 3 3 5 7 7 10 10 11 10 7 7 7 6 5 6 5 4 3 4 2 1 1 1 0 1 2 2 2 3 3
4 4 4 5 6 7 6 7 8 7 8 8 7 8 7 7 7 7 7 7 5 7 8 7 6 11 4 6 4 4 2 8 7 5 6 6 6 6 4 5 5 5 5 5 5 4 4 3 4 3 4 3 4 4 5 4 4 5 5 7 7 6 12 10 9 7 6 6 5 4 4 4 4 4 3 2 1 1 0 1 2 2 2 3 3
4 5 5 5 5 5 5 6 6 6 6 7 8 9 8 9 10 8 10 11 9 5 7 8 7 9 8 4 2 2 7 3 5 3 5 6 7 7 6 6 7 7 6 6 6 7 6 4 4 4 4 4 4 4 5 4 4 3 3 5 6 9 3 10 8 8 6 6 6 5 4 4 4 4 3 2 1 1 1 2 2 3 2 3 3
4 5 5 5 5 6 5 5 6 7 7 7 6 5 7 9 10 10 10 8 10 7 8 7 7 8 6 5 7 7 5 4 5 4 1 4 4 6 7 7 7 7 6 6 7 7 7 7 6 6 5 5 4 4 5 5 4 4 4 5 8 8 8 6 9 7 6 5 4 5 6 6 4 4 2 0 0 0 0 2 2 2 2 2 2
4 4 5 5 5 5 5 5 5 6 7 7 7 7 8 8 7 9 10 9 7 9 11 10 6 6 7 6 0 0 4 8 6 5 1 3 4 5 5 6 6 7 8 7 7 7 7 7 7 6 6 5 5 5 6 6 7 7 8 9 10 9 9 8 6 7 7 6 5 3 4 5 6 4 3 1 1 1 0 1 2 1 1 2 2
3 3 4 5 5 6 5 5 5 5 6 7 8 7 6 6 8 9 8 8 9 10 10 9 13 11 10 8 5 2 2 1 3 10 7 6 6 3 4 6 6 7 8 8 8 8 7 7 7 6 6 6 6 5 6 5 5 6 7 12 12 12 11 10 8 7 7 5 5 5 5 6 5 4 2 2 2 2 1 1 0 1 1 1 1
3 4 4 4 4 5 5 5 5 5 6 6 6 7 7 8 8 9 9 9 9 8 8 10 10 10 9 8 5 6 3 3 1 2 4 5 3 8 6 2 4 6 8 8 8 8 8 8 8 8 7 7 7 6 6 6 5 5 6 14 14 14 13 12 11 10 8 6 6 5 5 4 5 3 3 2 3 3 3 1 1 2 1 2 1
3 3 3 4 4 4 4 5 5 6 5 5 5 6 6 7 8 10 10 11 8 9 11 8 10 9 10 9 10 4 4 4 4 4 3 3 7 8 8 11 10 10 8 10 9 8 7 8 8 8 8 7 7 7 6 7 6 5 7 14 14 14 14 14 13 12 10 9 7 7 5 5 4 4 3 4 4 4 4 3 2 1 2 3 2
3 3 4 3 3 3 4 5 4 4 5 4 5 6 7 7 7 7 9 11 10 9 9 7 8 10 9 9 11 12 13 12 11 8 7 5 2 4 5 9 12 7 8 11 8 8 8 8 9 9 8 8 7 7 7 7 7 7 11 13 14 13 13 13 13 13 12 11 11 8 7 5 3 4 5 5 6 4 5 4 3 3 3 4 4
2 2 3 4 4 4 4 4 4 4 5 6 5 5 6 5 6 6 7 9 9 10 9 11 8 8 11 9 9 9 9 9 8 10 10 8 9 7 8 4 4 5 2 6 6 7 9 9 9 9 9 8 8 8 7 8 9 14 12 13 14 14 13 13 13 12 12 12 11 10 8 7 5 5 4 6 6 6 5 5 5 4 4 4 4
2 2 4 4 4 4 4 4 5 5 5 4 5 5 5 6 6 6 6 7 9 10 9 10 11 10 8 9 9 9 11 8 6 7 6 6 7 6 6 5 7 5 4 5 6 7 7 8 8 8 9 8 8 8 8 8 8 14 15 11 17 15 15 15 14 13 12 11 10 10 8 8 7 6 6 6 7 6 6 6 6 5 5 5 5
6 4 4 4 4 5 4 4 4 5 4 5 5 5 5 6 6 7 6 7 7 9 10 9 9 10 7 7 9 9 9 8 9 7 8 7 7 8 6 4 3 4 1 5 3 5 5 7 8 8 8 8 9 9 9 9 7 15 17 11 14 17 16 15 15 14 13 11 11 9 8 7 7 7 6 7 6 6 6 6 6 6 5 6 5
6 6 6 3 4 4 4 4 4 4 5 4 5 5 5 6 6 7 7 6 7 8 9 9 11 9 8 8 7 8 8 8 9 10 7 9 9 8 9 7 2 1 3 3 3 9 6 5 7 8 10 9 9 9 10 8 8 14 16 11 8 16 16 16 15 15 13 13 12 11 9 8 7 6 6 6 6 6 6 6 6 6 6 6 5
6 6 5 5 4 3 3 4 4 4 4 5 5 5 5 6 6 6 7 5 7 7 8 8 11 10 10 8 7 8 6 7 8 9 9 8 8 7 8 9 10 6 2 5 5 8 5 5 4 9 10 11 10 9 10 11 9 15 16 9 9 10 17 17 16 14 14 12 12 10 10 8 8 8 7 7 7 6 6 6 7 6 6 5 5
7 6 7 6 6 3 3 4 4 4 5 5 5 5 5 5 6 6 7 6 6 7 7 8 8 8 10 10 10 8 7 5 6 7 8 8 8 8 9 12 10 11 7 8 9 9 8 9 8 10 12 10 10 8 10 10 11 15 11 10 10 9 15 20 17 15 15 14 12 12 11 10 9 9 8 9 8 8 8 8 8 7 7 8 9
6 6 7 7 7 7 5 5 5 4 5 5 5 5 5 5 5 6 6 6 7 7 6 7 8 7 8 9 9 9 7 7 8 6 7 8 8 8 8 8 9 13 9 10 11 9 7 7 8 6 9 11 10 9 9 10 11 16 11 11 10 10 18 21 19 18 17 16 15 14 13 12 11 10 9 10 10 10 11 10 10 10 10 10 10
6 6 6 6 7 7 6 5 5 5 5 5 5 5 5 6 6 7 6 5 6 7 7 7 7 7 8 10 9 9 7 8 8 8 7 7 7 6 7 7 8 11 10 9 9 7 9 10 10 7 10 13 11 10 8 8 11 15 12 11 10 12 19 17 21 19 18 17 16 15 14 14 13 12 12 12 12 12 12 12 12 11 11 11 11
7 8 7 7 7 7 7 6 6 5 5 5 5 5 5 6 6 7 7 6 7 8 8 7 6 7 8 10 10 9 7 7 9 8 8 7 7 7 7 7 7 7 7 8 12 9 9 10 10 11 11 12 11 11 10 7 9 17 9 10 11 14 13 10 19 20 18 17 17 16 16 15 14 14 14 13 14 14 14 13 13 13 12 11 11
7 9 8 8 8 8 7 7 6 6 5 6 5 5 5 6 7 6 7 7 8 8 7 9 7 7 9 10 10 9 6 8 10 8 8 8 7 7 8 8 9 8 7 8 9 7 2 1 6 8 9 11 9 11 11 9 9 10 10 10 10 10 9 9 9 15 18 17 17 17 17 17 16 15 15 15 15 15 15 15 14 13 12 12 12
5 7 7 7 7 8 7 8 7 6 5 5 5 5 5 6 6 6 6 7 8 8 7 9 8 8 8 10 10 8 7 10 10 10 9 8 8 9 9 9 10 10 7 8 9 8 9 1 3 3 7 10 11 10 14 13 12 9 11 10 9 9 9 8 8 9 18 17 17 18 18 18 17 17 16 16 16 16 15 15 15 14 13 12 10
8 6 5 5 6 6 6 7 7 7 7 6 6 5 5 6 7 7 7 7 8 9 9 10 9 8 9 10 10 8 6 10 11 10 8 9 8 10 12 9 11 11 8 9 9 10 9 7 5 8 9 9 12 12 12 11 10 11 12 11 10 8 7 9 8 7 16 18 18 18 18 18 17 17 17 16 16 16 16 15 16 14 13 11 11
9 10 9 9 8 6 5 6 6 6 7 7 7 6 6 6 6 7 7 8 8 9 10 10 9 9 10 10 9 8 8 11 11 9 8 8 9 10 11 10 11 12 9 8 10 12 8 9 8 9 9 11 9 5 8 7 10 10 11 8 5 7 7 8 9 8 12 19 18 18 17 17 17 17 17 17 16 16 16 16 15 14 13 12 10
8 9 9 8 8 9 10 10 9 7 7 7 7 7 6 5 6 7 7 7 8 9 10 10 10 9 10 10 9 7 9 12 12 10 9 10 11 10 11 10 10 9 7 9 11 10 9 11 7 7 7 8 6 7 11 12 8 7 6 9 10 10 8 7 6 7 11 20 18 18 16 17 17 17 17 17 17 17 17 16 15 14 13 12 11
6 7 9 9 8 9 9 9 9 10 9 8 7 7 7 7 6 7 7 7 7 8 8 8 8 8 10 10 9 9 10 12 12 10 10 12 11 12 13 11 9 8 9 10 10 11 12 12 8 8 6 9 6 7 11 12 12 10 8 8 5 7 8 8 8 7 7 7 7 9 13 14 17 18 17 16 17 16 16 15 15 14 13 12 11
5 5 6 7 7 8 10 9 9 9 9 9 9 9 9 9 8 7 8 8 8 8 7 8 7 8 9 10 10 10 11 12 12 10 10 10 11 13 13 12 10 9 10 10 10 11 12 12 7 9 10 9 10 11 9 10 11 12 14 12 10 8 8 10 9 7 6 7 8 13 11 9 10 9 14 17 17 17 16 16 15 15 13 12 12
5 6 6 7 7 6 8 9 9 9 10 9 9 9 9 9 9 8 8 9 9 9 9 9 8 8 8 8 8 9 10 11 11 10 9 10 9 11 11 9 9 10 11 10 10 11 12 12 11 9 8 10 8 2 4 9 9 7 8 10 13 12 12 11 12 11 9 9 9 8 11 12 12 14 16 16 17 17 17 15 16 15 14 14 13
6 6 6 6 7 8 8 9 9 8 8 9 8 8 9 10 8 8 9 9 9 10 10 10 9 10 10 10 10 10 11 14 16 14 13 11 10 10 10 8 9 11 10 10 10 10 10 11 11 7 8 9 11 11 11 14 17 17 12 11 12 10 9 8 9 8 8 10 8 8 8 10 9 9 8 7 9 14 14 16 11 15 15 15 14
8 8 7 7 7 7 7 7 8 8 8 7 10 16 14 10 9 8 9 9 9 9 10 10 10 10 10 10 10 15 17 18 18 18 18 18 18 13 10 7 9 10 11 11 11 11 11 12 13 10 9 12 13 14 14 14 12 8 11 13 11 8 8 9 5 6 8 9 9 9 9 8 9 8 8 8 7 9 7 8 7 7 10 14 15
10 9 9 10 10 9 10 10 9 8 7 8 14 16 17 19 13 9 9 10 9 10 10 10 11 11 10 10 9 11 13 15 15 20 20 22 22 22 22 18 14 12 11 13 13 12 12 13 13 12 12 14 14 12 13 11 11 14 14 14 13 10 13 13 12 5 9 11 9 9 8 8 9 10 9 10 9 8 8 9 12 15 15 15 16
9 8 9 10 11 11 11 11 12 11 10 11 16 17 19 20 17 12 9 9 9 9 10 11 10 10 10 10 9 8 9 11 12 11 15 19 21 22 22 21 22 23 20 15 14 12 13 13 14 14 14 15 13 11 10 10 12 11 10 12 14 15 13 13 11 10 9 15 12 10 10 7 9 9 9 10 10 10 10 13 17 17 17 17 18
8 8 10 11 11 11 11 13 13 13 13 12 18 19 20 21 21 17 10 10 10 10 11 11 11 11 10 10 10 10 9 15 13 12 12 12 16 20 21 21 22 24 24 25 23 17 12 14 14 15 16 15 13 12 13 13 10 14 13 12 14 13 13 14 14 9 8 16 11 10 10 9 11 11 10 9 9 8 9 15 18 18 18 19 19
10 11 12 13 13 13 13 13 13 12 14 13 20 22 22 23 23 20 11 12 12 12 12 11 11 11 11 11 11 11 10 10 9 11 11 11 11 10 11 13 13 18 22 25 25 26 21 15 15 17 16 13 12 10 11 13 15 15 14 14 12 12 13 15 11 10 10 15 18 12 8 9 11 10 11 8 8 8 8 12 19 18 19 20 19
12 13 13 13 14 14 14 14 14 15 15 20 22 23 23 24 25 21 13 12 12 12 12 12 12 12 12 12 12 12 12 11 10 11 10 10 10 10 11 12 13 13 14 15 17 17 16 15 15 17 15 13 13 10 11 14 17 15 15 15 16 15 14 7 1 1 5 10 11 10 13 8 10 10 9 8 8 8 7 12 19 19 20 20 19
12 12 13 13 15 16 16 15 15 17 16 23 26 25 26 25 27 16 12 13 13 12 13 13 13 12 12 12 12 13 13 12 13 18 16 11 10 12 13 13 13 12 13 15 18 18 16 15 15 16 14 13 13 12 11 14 13 11 10 5 3 6 7 7 10 4 7 9 12 12 5 7 10 12 9 7 7 8 8 8 16 20 20 20 19
14 15 15 15 15 16 17 17 17 17 17 20 26 28 27 29 22 14 13 12 12 13 14 13 13 13 13 13 13 13 13 13 14 17 19 18 12 13 14 14 13 12 13 13 16 22 22 22 24 24 21 15 19 13 13 20 17 14 11 10 13 12 11 11 10 7 9 8 9 11 5 6 9 10 8 8 9 8 8 9 8 16 20 18 18
17 17 16 16 16 16 17 18 18 18 18 21 29 30 31 30 24 15 12 12 13 13 14 14 13 13 15 21 19 15 14 14 15 19 19 16 13 14 14 14 14 14 15 13 9 11 21 22 24 24 25 23 21 21 20 19 20 17 16 19 15 11 12 14 13 10 5 7 11 9 7 7 8 8 7 3 4 3 6 6 7 8 14 14 17
16 16 15 15 16 16 16 17 19 21 19 20 26 29 30 29 24 16 15 13 15 14 14 15 14 13 14 16 23 21 17 16 20 20 20 17 13 13 14 14 14 15 16 13 10 10 11 13 15 16 16 19 17 15 15 20 22 19 18 17 12 14 16 15 11 6 5 11 12 12 11 6 11 7 10 7 4 2 3 7 7 7 6 6 7
Wind_Direction
161 165 161 169 162 163 167 178 169 165 164 188 170 165 177 167 171 181 151 138 137 157 153 154 141 120 117 115 92 88 76 80 65 32 22 81 84 47 27 11 3 6 356 304 225 230 228 187 210 108 114 176 142 127 287 173 123 107 96 102 82 72 56 62 57 58 63 60 60 65 66 66 71 67 72 69 69 66 62 61 56 55 54 54 51
157 160 165 178 172 166 168 177 172 166 165 187 178 159 169 163 163 158 153 152 153 182 144 150 116 111 118 124 120 135 118 108 119 117 47 80 98 73 38 19 16 13 14 3 313 230 243 214 180 169 195 186 169 149 176 180 134 139 114 95 99 84 65 52 58 65 68 63 64 68 70 73 70 74 73 75 72 70 65 64 62 58 54 49 47
157 163 168 178 178 170 174 173 171 170 167 176 165 159 163 164 163 163 166 159 169 166 148 134 122 100 120 120 128 101 100 106 83 57 73 63 109 99 57 37 27 24 26 36 34 20 299 236 170 182 215 215 191 184 185 199 168 159 142 119 92 96 91 72 60 71 69 66 74 74 74 71 76 75 71 71 72 70 71 64 63 57 60 58 56
160 166 170 178 179 175 174 169 172 163 165 161 160 161 165 164 160 162 164 156 152 163 150 141 141 141 119 118 110 114 118 113 108 86 55 63 101 125 109 68 42 38 32 34 38 43 42 45 70 168 227 233 217 203 177 207 177 190 184 153 130 93 72 81 90 79 82 86 87 85 78 81 81 76 71 68 69 73 69 67 62 62 59 58 54
167 168 170 176 175 171 172 169 165 160 160 158 156 160 158 155 165 157 158 142 140 163 148 144 133 142 139 155 123 111 118 119 116 98 90 58 145 151 133 113 84 49 41 39 32 42 53 51 49 36 294 250 247 197 176 186 218 218 220 169 162 148 118 106 82 80 92 92 87 88 81 77 77 78 74 75 72 67 65 61 61 59 57 58 55
160 167 168 173 177 174 170 169 166 160 158 154 160 163 158 153 161 148 157 145 152 162 146 137 140 139 132 145 132 146 131 116 135 133 136 199 222 120 152 141 133 100 70 45 37 34 48 58 57 48 30 1 262 168 176 191 205 223 207 198 199 173 142 119 133 128 110 92 79 79 85 85 85 81 76 67 64 63 65 63 61 62 63 58 58
164 166 175 172 174 172 174 175 165 157 157 164 158 164 154 158 157 152 154 148 153 166 161 153 149 150 150 159 142 140 130 131 118 131 150 201 126 147 140 165 145 133 122 100 53 32 39 54 57 51 42 32 14 205 184 201 178 203 208 199 201 157 152 171 132 127 103 109 116 101 103 94 81 86 75 72 65 65 63 66 57 58 55 54 51
170 167 175 178 175 175 178 168 164 157 157 160 158 167 162 158 172 155 157 172 155 173 168 155 152 149 155 158 150 150 154 144 145 149 184 149 158 156 148 115 125 158 153 118 102 55 44 51 55 52 46 37 29 19 174 177 184 200 224 204 197 176 179 199 185 163 137 132 128 126 108 103 90 74 77 73 66 57 59 57 52 47 46 44 43
177 173 174 180 177 174 176 171 159 156 155 164 167 171 161 163 175 176 166 164 160 164 165 150 148 146 143 131 147 151 152 153 156 167 155 165 180 169 140 104 106 118 106 133 123 111 70 68 63 54 39 39 39 39 22 199 204 212 215 201 181 194 194 189 196 165 133 145 160 152 133 124 116 102 89 81 65 44 49 49 47 38 35 34 35
180 170 172 180 178 173 174 167 159 155 156 164 177 172 167 163 171 181 170 155 160 162 165 149 133 127 113 114 128 133 158 143 155 146 155 197 171 172 153 140 143 170 114 129 139 134 127 107 96 71 41 35 39 33 25 18 6 284 217 195 191 191 180 181 164 177 188 199 180 170 164 107 98 106 80 75 61 57 41 46 39 41 39 39 37
184 173 173 183 184 180 174 171 160 158 154 163 174 173 169 172 169 178 172 168 161 166 157 140 127 117 116 126 118 121 113 113 119 132 170 210 179 187 134 152 164 150 126 122 135 146 152 166 143 116 81 38 32 24 18 19 352 351 278 204 182 183 184 171 167 172 191 198 200 209 201 209 184 178 132 56 40 46 64 35 38 34 38 37 42
189 181 178 181 184 185 176 167 165 159 162 167 180 179 178 174 175 168 167 154 149 151 132 123 96 95 99 64 60 83 36 83 108 178 215 188 183 154 146 169 145 141 144 141 129 141 155 176 163 143 135 103 52 18 17 17 8 344 343 219 194 193 184 176 166 171 184 207 204 212 226 225 224 189 181 175 139 106 68 60 49 43 40 37 33
195 180 190 178 185 181 164 170 167 169 174 183 181 183 179 174 166 166 162 160 165 153 144 126 120 67 55 91 56 24 60 23 248 245 213 190 160 156 186 146 163 149 175 149 145 156 168 164 160 150 151 146 165 170 18 39 15 353 349 302 199 199 184 177 181 160 194 214 216 207 214 210 224 199 220 213 156 85 96 69 67 60 53 38 35
189 187 184 184 186 182 171 178 176 184 187 179 179 181 175 174 160 164 184 166 175 162 159 121 154 169 150 180 348 290 228 207 250 252 222 203 174 171 194 181 177 176 189 157 171 177 179 185 175 153 158 164 171 194 197 57 22 6 344 353 244 200 207 201 187 181 170 202 207 191 198 215 204 211 210 252 206 154 100 60 97 71 48 49 39
187 189 188 191 190 185 187 178 184 179 177 188 185 185 186 181 177 174 177 186 153 173 170 178 166 142 130 98 229 180 306 305 256 232 213 208 189 190 192 184 183 177 179 160 178 191 198 187 174 160 166 172 175 172 121 114 86 40 24 5 350 228 203 205 200 194 188 181 209 188 189 195 199 194 194 199 215 216 83 65 61 56 57 44 35
185 192 197 201 199 198 189 181 190 184 183 186 190 195 187 189 186 185 163 167 185 200 197 182 143 140 170 196 196 144 285 251 206 228 195 196 190 199 184 184 179 180 164 176 187 188 202 178 173 174 183 182 177 163 139 135 113 83 56 32 9 357 196 195 202 212 196 183 191 204 185 197 208 202 196 201 219 165 91 83 76 66 51 31 38
180 197 200 209 210 206 197 191 189 194 187 192 196 199 194 192 187 179 184 182 191 179 214 204 199 195 146 122 123 205 215 209 142 247 185 192 206 191 190 178 180 182 183 194 186 184 179 171 176 180 193 198 193 181 152 157 144 143 108 84 57 36 53 181 192 198 201 188 190 201 196 186 213 211 207 208 192 157 97 81 76 61 36 29 33
181 192 205 208 216 216 211 194 193 193 195 200 200 195 199 196 196 190 195 203 183 167 194 228 213 219 219 204 152 175 183 188 125 235 229 226 200 204 193 192 180 186 194 197 189 184 176 175 178 187 194 197 200 183 166 172 171 159 156 142 114 95 79 127 169 176 185 189 186 216 216 212 212 211 213 214 348 38 356 76 77 70 27 29 18
207 190 198 206 213 220 219 213 197 194 196 197 202 204 205 204 196 198 202 197 168 188 192 198 218 254 242 243 96 150 146 130 204 93 227 283 226 211 223 204 189 188 201 206 194 178 182 172 184 186 192 197 198 187 174 185 180 178 162 164 151 137 125 108 121 165 176 175 187 219 238 229 225 226 231 253 305 290 324 98 74 60 19 2 22
212 220 204 204 211 219 219 219 213 204 194 203 208 210 207 209 204 206 204 200 198 195 195 187 188 211 217 230 223 179 203 209 169 172 161 164 234 248 240 209 200 208 200 202 197 188 177 183 182 184 192 199 195 194 185 180 182 175 171 172 167 160 151 144 135 127 138 159 181 199 235 231 235 235 237 263 271 279 270 196 196 53 294 297 349
217 220 226 215 215 222 224 222 220 221 204 209 215 212 208 199 203 205 207 211 209 209 194 199 198 204 196 226 214 210 223 236 200 146 145 149 225 190 209 211 222 228 214 204 202 189 185 183 180 181 190 196 195 193 183 174 176 170 172 173 170 169 167 163 158 154 147 152 164 192 221 224 221 238 250 265 269 268 268 228 224 246 284 286 284
254 254 242 229 216 222 230 231 230 229 220 215 219 222 222 214 207 206 208 213 212 211 213 201 203 206 204 195 202 186 216 256 251 214 246 187 174 196 192 177 198 229 200 209 199 193 185 179 179 184 189 194 194 194 184 180 176 174 183 177 175 174 171 166 169 170 167 168 174 191 202 208 213 218 238 252 254 251 252 254 280 298 279 287 283
209 248 256 252 237 216 220 235 239 237 234 235 231 223 227 225 219 213 211 212 214 218 222 217 198 206 206 199 206 196 198 199 202 205 191 189 132 201 194 199 201 208 219 207 193 194 186 180 184 188 187 191 194 192 188 185 182 180 184 181 175 172 166 170 174 176 178 179 186 188 201 206 203 209 222 231 242 242 244 239 247 260 265 273 282
180 217 250 253 235 240 232 233 242 243 240 234 238 235 234 236 229 219 221 220 221 221 224 225 214 206 211 207 212 211 220 217 208 203 194 205 191 191 189 184 272 243 222 189 201 189 193 190 191 184 185 188 193 190 187 184 189 180 180 182 176 173 176 178 180 181 184 186 184 189 195 201 203 210 215 228 231 228 238 234 238 241 246 253 273
311 230 252 231 222 233 243 237 241 238 239 243 246 241 237 235 235 231 221 219 220 224 226 228 223 219 212 216 212 211 219 218 204 207 217 207 200 190 215 181 189 195 214 162 198 204 192 200 185 188 184 188 189 192 191 188 185 181 175 182 181 182 183 185 180 183 188 189 188 192 194 200 204 206 219 222 224 233 228 228 234 244 244 253 258
343 324 257 233 221 218 223 236 239 243 239 237 241 242 236 235 236 238 231 226 220 225 231 234 236 236 222 220 221 216 219 207 212 200 203 187 209 202 190 223 190 185 150 179 197 151 244 212 192 183 189 188 192 191 193 189 178 182 176 177 185 186 189 183 177 181 187 189 194 193 197 201 205 210 225 231 227 231 237 239 240 236 244 250 255
343 328 335 285 231 228 227 240 254 255 256 256 250 245 243 242 240 242 242 230 227 223 228 227 235 238 239 230 227 225 218 208 208 218 199 204 200 193 181 188 212 112 188 220 214 211 197 205 182 191 192 191 193 194 190 191 182 180 177 177 186 190 188 183 185 186 186 189 192 196 197 200 204 212 218 238 243 243 242 238 242 239 242 247 264
333 338 324 332 296 250 254 247 254 261 261 259 258 252 248 244 248 249 251 243 236 231 231 226 234 234 238 243 241 240 225 217 213 215 214 209 201 194 188 193 188 227 212 215 218 238 201 184 215 205 191 196 197 192 191 186 180 182 176 179 182 189 189 191 192 190 188 189 190 193 199 201 204 211 218 224 233 241 244 244 239 245 248 264 280
343 339 335 327 321 304 282 278 271 262 263 259 255 256 253 246 243 247 251 252 246 240 235 230 235 230 238 236 238 243 237 235 232 224 217 213 208 200 193 197 195 209 197 213 224 212 230 194 187 215 196 193 191 192 189 196 183 179 183 181 184 186 193 194 194 193 189 189 192 195 199 204 209 210 217 225 225 225 227 227 230 235 237 237 239
344 336 337 336 331 328 319 302 291 288 272 270 266 258 254 253 249 247 245 246 252 255 245 237 237 229 237 239 238 242 236 239 240 232 227 221 214 209 205 205 190 210 199 200 233 197 212 209 202 190 193 194 189 192 194 196 180 181 184 185 184 189 192 196 197 195 192 192 192 194 198 204 208 209 218 226 227 225 224 223 221 223 227 230 234
340 335 335 334 333 328 325 307 297 286 281 276 271 271 262 259 253 250 256 250 250 252 251 241 241 229 235 239 238 241 229 237 244 241 242 232 228 220 223 204 205 212 198 196 235 233 182 197 211 197 183 192 187 187 191 190 182 182 184 189 190 182 188 195 196 194 192 193 191 193 198 201 205 207 214 223 224 226 226 223 224 225 226 231 234
348 345 341 341 335 332 327 320 307 294 281 271 265 261 264 257 257 258 253 240 243 247 254 248 246 236 238 240 238 237 231 229 240 237 237 237 228 229 229 227 224 210 190 197 223 236 200 199 195 194 182 181 181 181 191 181 183 182 184 190 193 185 186 191 192 189 190 191 192 193 196 198 201 205 211 218 223 226 225 225 225 227 229 230 233
353 346 347 343 337 331 324 317 311 305 293 282 271 258 254 256 256 251 255 251 248 247 239 249 248 246 246 245 242 238 224 228 236 235 234 232 229 230 228 227 235 226 200 209 226 241 289 238 175 185 183 164 183 188 183 182 175 186 184 190 189 190 182 180 184 187 189 194 196 196 196 198 200 202 206 213 221 224 225 226 227 229 230 230 230
354 343 342 338 334 330 328 319 311 301 297 290 280 267 256 255 255 247 251 249 252 252 245 246 241 239 242 247 249 244 229 233 235 234 230 229 225 228 227 218 230 234 213 213 233 228 224 232 144 127 171 182 183 189 184 180 188 179 186 188 192 187 181 175 180 193 196 200 201 198 197 198 199 200 204 209 217 221 224 226 227 228 228 228 227
342 344 333 331 330 330 326 321 317 314 306 299 288 274 261 251 252 252 246 246 248 251 251 250 246 242 244 242 244 238 238 243 240 235 228 229 225 226 230 219 225 228 216 216 227 234 222 221 185 171 181 186 190 189 194 195 184 180 181 188 187 186 184 182 183 183 199 199 199 199 199 200 199 201 203 208 214 220 222 225 226 226 225 226 227
338 334 338 335 335 330 323 318 320 315 311 305 303 297 282 268 257 252 249 245 243 244 245 248 247 243 242 247 244 234 232 241 243 237 230 227 228 231 233 227 226 226 215 211 220 231 220 204 207 189 186 178 207 190 190 171 170 183 190 182 168 183 188 187 184 184 193 196 197 198 200 201 201 202 204 209 214 219 221 224 226 227 225 225 229
331 331 328 331 329 331 328 325 321 316 309 305 299 291 282 278 273 268 260 251 246 244 243 244 244 243 246 246 247 232 231 241 242 236 230 230 230 230 233 231 229 227 220 214 223 221 218 216 200 202 188 199 190 177 176 170 173 183 186 190 190 189 190 194 187 188 188 197 197 197 199 202 203 205 207 210 215 218 222 224 226 227 226 227 229
313 318 316 318 321 317 317 314 315 313 311 308 302 293 288 282 277 272 270 266 262 257 254 249 247 246 250 251 247 238 235 238 242 236 227 229 229 230 231 230 226 225 224 226 224 225 226 227 184 179 196 186 177 191 187 180 173 175 187 197 190 196 185 195 202 195 192 188 183 192 197 202 204 206 208 213 216 219 221 224 226 227 227 228 232
287 286 286 291 297 304 307 307 306 304 304 303 303 301 298 294 287 281 275 272 269 269 265 263 258 253 250 252 249 241 241 240 242 236 228 230 228 231 229 227 220 218 224 226 224 226 228 228 208 193 186 202 188 186 192 187 188 186 180 174 200 203 203 199 199 200 188 190 193 188 187 184 191 199 210 215 219 222 224 225 227 228 229 231 235
268 270 275 277 275 278 281 287 291 298 299 299 296 294 292 291 290 288 285 282 280 276 270 262 257 254 252 252 251 248 244 245 243 241 228 232 230 236 232 224 216 216 221 223 224 225 228 229 219 201 195 185 202 198 141 172 185 209 204 185 189 192 202 205 204 188 190 183 189 191 195 193 200 206 211 216 220 222 223 226 226 228 229 232 236
266 260 261 262 270 270 264 264 269 271 277 280 287 291 293 289 284 283 283 278 275 276 275 271 263 258 257 255 254 252 251 251 247 243 237 230 229 236 233 220 221 221 221 221 218 220 227 225 230 200 187 194 200 180 177 189 194 197 177 182 206 203 195 198 214 201 186 182 188 183 193 188 186 193 189 195 208 216 221 220 223 227 231 234 236
282 282 278 274 266 263 264 261 255 255 256 257 262 267 271 273 276 277 276 272 268 267 269 271 267 260 254 253 250 250 250 251 252 251 249 245 241 236 231 213 219 226 222 221 219 218 219 221 225 212 198 210 201 197 193 199 192 164 180 193 197 186 171 213 224 216 184 178 177 194 205 192 186 184 184 193 194 196 193 206 209 205 222 232 233
285 287 287 287 287 285 282 279 270 254 247 247 251 253 258 266 270 267 267 272 274 271 270 269 272 271 267 260 257 254 251 251 251 250 249 247 247 247 245 237 225 221 224 225 224 218 218 222 221 218 215 220 212 199 201 189 187 190 190 188 192 176 188 183 206 189 193 177 188 197 208 195 181 190 191 195 190 188 193 202 205 216 221 224 227
281 277 278 278 282 285 285 283 280 276 271 259 257 256 259 261 261 260 257 261 263 267 267 267 267 269 268 267 262 258 249 246 247 247 246 245 246 245 245 243 240 235 227 222 224 224 219 224 222 219 217 223 213 191 198 189 193 195 197 195 193 191 190 201 205 196 183 171 188 195 211 181 188 194 193 201 193 192 192 193 201 209 215 219 219
287 284 281 282 281 278 274 275 274 273 273 266 266 268 271 271 269 266 259 255 256 257 260 261 263 263 261 261 263 258 256 250 247 247 247 245 241 241 242 243 242 240 238 234 228 225 219 225 226 226 219 219 212 200 196 190 178 193 194 198 202 204 203 205 207 182 151 178 176 199 201 190 181 193 201 199 187 182 184 193 200 207 212 212 207
289 287 287 287 288 287 285 281 277 272 269 261 264 265 266 267 269 270 262 262 261 256 252 249 252 256 254 254 256 257 254 251 244 243 243 242 241 237 237 237 238 241 241 239 237 232 225 225 225 231 229 216 218 204 188 173 183 197 194 203 199 203 207 216 207 196 180 173 183 176 198 195 183 184 206 194 174 177 181 190 200 206 211 211 210
294 290 289 289 286 285 286 285 285 284 280 274 270 267 264 265 267 267 261 260 261 260 256 252 250 248 250 249 248 250 252 249 243 242 240 241 240 238 235 234 235 235 235 235 235 235 231 229 231 236 235 225 222 203 172 185 194 197 194 197 194 200 210 208 78 28 132 188 183 168 206 180 175 189 204 178 175 179 176 190 202 208 210 210 212
294 292 289 286 286 285 283 282 281 279 277 279 281 280 277 275 272 265 259 255 256 256 255 255 252 252 251 250 250 250 249 247 240 241 241 238 239 239 238 237 237 236 237 234 234 233 233 231 233 236 236 231 224 217 182 185 192 189 196 188 186 199 193 191 211 173 183 189 185 189 182 174 183 186 183 166 166 177 180 179 201 204 208 209 213
293 289 286 284 284 282 281 279 276 274 275 274 274 276 278 279 277 267 261 257 255 254 255 254 252 252 251 248 247 249 250 250 239 232 236 239 238 238 240 240 237 235 240 238 231 235 236 236 239 240 237 228 229 218 189 187 184 176 173 181 205 189 189 204 212 183 208 180 195 201 166 167 184 174 156 174 177 177 179 182 182 202 203 209 217
291 287 285 283 279 275 274 274 272 275 274 272 273 274 274 273 273 274 270 266 260 259 261 258 257 254 249 247 246 246 246 248 242 234 230 232 236 236 238 240 241 239 242 239 229 230 234 237 240 241 242 240 233 229 220 199 190 175 182 199 198 175 197 207 208 196 180 188 205 180 164 197 156 162 144 121 116 194 177 170 177 190 203 212 219
287 288 285 283 281 278 274 273 273 272 272 272 272 274 275 276 277 276 274 270 268 262 261 261 260 257 254 250 246 244 243 243 242 238 232 230 234 232 236 237 239 241 241 235 217 215 218 222 230 234 240 240 236 228 227 220 205 196 198 204 180 181 199 206 197 145 176 225 203 176 181 182 155 180 147 133 186 253 170 188 180 179 191 193 210